When you browse on this site, cookies collect data to enhance your experience and personalize the content and advertising you see.
Visit our Privacy Policy to learn more. By continuing to use the site, you agree to this use of cookies and data.
  • In Spain
  • List of Countries
  • For 7 days
  • Water Temperature
  • Weather Map
  • Weather Widgets
  • user-avatar
    Login

    Hourly Weather Chervonyi Lyman

    Today, 21 September, Saturday

    Time Temperature Precipitation Wind Pressure Humidity
    00:00 +10°C° 0.1 mm 1 mps 751 mmHg 69%
    01:00 +9°C° 0 mm 1 mps 751 mmHg 71%
    02:00 +9°C° 0 mm 1 mps 751 mmHg 72%
    03:00 +8°C° 0 mm 1 mps 751 mmHg 69%
    04:00 +8°C° 0 mm 1 mps 751 mmHg 71%
    05:00 +8°C° 0 mm 1 mps 751 mmHg 74%
    06:00 +7°C° 0 mm 1 mps 751 mmHg 76%
    07:00 +8°C° 0.1 mm 2 mps 752 mmHg 70%
    08:00 +10°C° 0.1 mm 2 mps 752 mmHg 64%
    09:00 +13°C° 0 mm 2 mps 752 mmHg 57%
    10:00 +13°C° 0.2 mm 3 mps 752 mmHg 52%
    11:00 +14°C° 0.2 mm 3 mps 752 mmHg 47%
    12:00 +15°C° 0.2 mm 4 mps 752 mmHg 42%
    13:00 +14°C° 0.5 mm 4 mps 752 mmHg 43%
    14:00 +14°C° 0.5 mm 5 mps 752 mmHg 44%
    15:00 +14°C° 0 mm 5 mps 752 mmHg 44%
    16:00 +13°C° 0.2 mm 4 mps 752 mmHg 48%
    17:00 +13°C° 0.2 mm 4 mps 753 mmHg 52%
    18:00 +12°C° 0.2 mm 4 mps 753 mmHg 55%
    19:00 +11°C° 0.1 mm 3 mps 753 mmHg 58%
    20:00 +10°C° 0.1 mm 3 mps 753 mmHg 62%
    21:00 +9°C° 0.1 mm 3 mps 754 mmHg 65%
    22:00 +8°C° 0 mm 3 mps 754 mmHg 64%
    23:00 +8°C° 0 mm 3 mps 754 mmHg 64%

    Tomorrow, 22 September, Sunday

    Time Temperature Precipitation Wind Pressure Humidity
    00:00 +7°C° 0 mm 4 mps 754 mmHg 64%
    01:00 +7°C° 0 mm 4 mps 754 mmHg 65%
    02:00 +6°C° 0 mm 4 mps 754 mmHg 66%
    03:00 +6°C° 0 mm 4 mps 753 mmHg 67%
    04:00 +6°C° 0 mm 5 mps 753 mmHg 64%
    05:00 +6°C° 0 mm 5 mps 753 mmHg 61%
    06:00 +7°C° 0 mm 6 mps 752 mmHg 58%
    07:00 +6°C° 0 mm 7 mps 752 mmHg 58%
    08:00 +7°C° 0 mm 8 mps 751 mmHg 58%
    09:00 +8°C° 0 mm 10 mps 751 mmHg 58%
    10:00 +8°C° 0.2 mm 10 mps 750 mmHg 64%
    11:00 +9°C° 0.2 mm 10 mps 750 mmHg 70%
    12:00 +11°C° 0.2 mm 10 mps 750 mmHg 76%
    13:00 +11°C° 0.1 mm 10 mps 749 mmHg 76%
    14:00 +12°C° 0.1 mm 10 mps 749 mmHg 76%
    15:00 +13°C° 0.1 mm 9 mps 749 mmHg 76%
    16:00 +13°C° 0.1 mm 9 mps 749 mmHg 74%
    17:00 +13°C° 0.1 mm 8 mps 749 mmHg 72%
    18:00 +14°C° 0.1 mm 7 mps 749 mmHg 70%
    19:00 +14°C° 0 mm 7 mps 749 mmHg 70%
    20:00 +14°C° 0 mm 7 mps 749 mmHg 71%
    21:00 +12°C° 0 mm 7 mps 749 mmHg 71%
    22:00 +13°C° 0.1 mm 6 mps 749 mmHg 72%
    23:00 +13°C° 0.1 mm 6 mps 750 mmHg 73%

    Day after tomorrow, 23 September, Monday

    Time Temperature Precipitation Wind Pressure Humidity
    00:00 +13°C° 0.1 mm 6 mps 750 mmHg 73%
    01:00 +12°C° 0.1 mm 5 mps 750 mmHg 75%
    02:00 +11°C° 0.1 mm 4 mps 751 mmHg 77%
    03:00 +10°C° 0.1 mm 4 mps 751 mmHg 78%
    04:00 +10°C° 0.4 mm 3 mps 751 mmHg 80%
    05:00 +9°C° 0.4 mm 3 mps 752 mmHg 81%
    06:00 +8°C° 0.4 mm 2 mps 752 mmHg 83%
    07:00 +8°C° 0.4 mm 2 mps 752 mmHg 81%
    08:00 +8°C° 0.4 mm 3 mps 753 mmHg 79%
    09:00 +9°C° 0.4 mm 3 mps 753 mmHg 77%
    10:00 +10°C° 0 mm 3 mps 754 mmHg 65%
    11:00 +11°C° 0 mm 3 mps 754 mmHg 53%
    12:00 +12°C° 0 mm 3 mps 755 mmHg 41%
    13:00 +13°C° 0 mm 3 mps 755 mmHg 37%
    14:00 +13°C° 0 mm 3 mps 754 mmHg 33%
    15:00 +14°C° 0 mm 3 mps 754 mmHg 29%
    16:00 +13°C° 0 mm 3 mps 755 mmHg 31%
    17:00 +13°C° 0 mm 2 mps 755 mmHg 34%
    18:00 +12°C° 0 mm 2 mps 755 mmHg 36%
    19:00 +11°C° 0 mm 1 mps 755 mmHg 38%
    20:00 +10°C° 0 mm 1 mps 756 mmHg 39%
    21:00 +8°C° 0 mm 0 mps 756 mmHg 41%
    22:00 +8°C° 0 mm 0 mps 756 mmHg 42%
    23:00 +7°C° 0 mm 0 mps 756 mmHg 43%

    24 September, Tuesday

    Time Temperature Precipitation Wind Pressure Humidity
    00:00 +7°C° 0 mm 0 mps 756 mmHg 44%
    01:00 +7°C° 0 mm 0 mps 756 mmHg 45%
    02:00 +6°C° 0 mm 0 mps 756 mmHg 46%
    03:00 +6°C° 0 mm 0 mps 756 mmHg 47%
    04:00 +6°C° 0 mm 0 mps 756 mmHg 48%
    05:00 +5°C° 0 mm 0 mps 756 mmHg 49%
    06:00 +5°C° 0 mm 0 mps 756 mmHg 50%
    07:00 +8°C° 0 mm 1 mps 756 mmHg 45%
    08:00 +10°C° 0 mm 1 mps 757 mmHg 41%
    09:00 +12°C° 0 mm 1 mps 757 mmHg 36%
    10:00 +13°C° 0 mm 1 mps 757 mmHg 33%
    11:00 +15°C° 0 mm 1 mps 756 mmHg 29%
    12:00 +16°C° 0 mm 1 mps 756 mmHg 26%
    13:00 +16°C° 0 mm 1 mps 756 mmHg 25%
    14:00 +18°C° 0 mm 1 mps 755 mmHg 23%
    15:00 +18°C° 0 mm 1 mps 755 mmHg 22%
    16:00 +16°C° 0 mm 1 mps 755 mmHg 25%
    17:00 +15°C° 0 mm 1 mps 754 mmHg 28%
    18:00 +15°C° 0 mm 1 mps 754 mmHg 30%
    19:00 +14°C° 0 mm 1 mps 754 mmHg 31%
    20:00 +13°C° 0 mm 1 mps 754 mmHg 32%
    21:00 +12°C° 0 mm 2 mps 755 mmHg 33%
    22:00 +12°C° 0 mm 2 mps 755 mmHg 34%
    23:00 +12°C° 0 mm 2 mps 754 mmHg 35%

    25 September, Wednesday

    Time Temperature Precipitation Wind Pressure Humidity
    00:00 +12°C° 0 mm 2 mps 754 mmHg 37%
    01:00 +12°C° 0 mm 2 mps 754 mmHg 37%
    02:00 +10°C° 0 mm 2 mps 754 mmHg 37%
    03:00 +10°C° 0 mm 2 mps 754 mmHg 38%
    04:00 +10°C° 0 mm 2 mps 754 mmHg 39%
    05:00 +9°C° 0 mm 2 mps 754 mmHg 41%
    06:00 +9°C° 0 mm 2 mps 754 mmHg 42%
    07:00 +10°C° 0 mm 2 mps 754 mmHg 40%
    08:00 +13°C° 0 mm 2 mps 754 mmHg 38%
    09:00 +14°C° 0 mm 2 mps 754 mmHg 36%
    10:00 +15°C° 0 mm 2 mps 754 mmHg 37%
    11:00 +15°C° 0 mm 2 mps 755 mmHg 37%
    12:00 +16°C° 0 mm 2 mps 755 mmHg 38%
    13:00 +16°C° 0 mm 1 mps 754 mmHg 39%
    14:00 +16°C° 0 mm 1 mps 754 mmHg 39%
    15:00 +18°C° 0 mm 1 mps 754 mmHg 40%
    16:00 +16°C° 0 mm 1 mps 754 mmHg 42%
    17:00 +15°C° 0 mm 1 mps 754 mmHg 45%
    18:00 +15°C° 0 mm 1 mps 753 mmHg 47%
    19:00 +14°C° 0 mm 1 mps 754 mmHg 48%
    20:00 +13°C° 0 mm 1 mps 754 mmHg 50%
    21:00 +13°C° 0 mm 1 mps 754 mmHg 51%
    22:00 +12°C° 0 mm 1 mps 754 mmHg 51%
    23:00 +12°C° 0 mm 1 mps 754 mmHg 51%

    26 September, Thursday

    Time Temperature Precipitation Wind Pressure Humidity
    00:00 +12°C° 0 mm 2 mps 754 mmHg 51%
    01:00 +12°C° 0 mm 2 mps 754 mmHg 52%
    02:00 +10°C° 0 mm 2 mps 754 mmHg 53%
    03:00 +10°C° 0 mm 2 mps 754 mmHg 53%
    04:00 +10°C° 0 mm 2 mps 753 mmHg 58%
    05:00 +9°C° 0 mm 2 mps 753 mmHg 63%
    06:00 +9°C° 0 mm 2 mps 753 mmHg 68%
    07:00 +10°C° 0 mm 3 mps 753 mmHg 66%
    08:00 +12°C° 0 mm 3 mps 753 mmHg 64%
    09:00 +14°C° 0 mm 4 mps 753 mmHg 62%
    10:00 +17°C° 0 mm 4 mps 753 mmHg 58%
    11:00 +19°C° 0 mm 4 mps 753 mmHg 55%
    12:00 +21°C° 0 mm 4 mps 753 mmHg 51%
    13:00 +21°C° 0 mm 4 mps 752 mmHg 50%
    14:00 +22°C° 0 mm 4 mps 752 mmHg 48%
    15:00 +23°C° 0 mm 4 mps 751 mmHg 46%
    16:00 +22°C° 0 mm 4 mps 751 mmHg 50%
    17:00 +21°C° 0 mm 3 mps 750 mmHg 54%
    18:00 +20°C° 0 mm 2 mps 750 mmHg 57%
    19:00 +19°C° 0 mm 3 mps 750 mmHg 59%
    20:00 +18°C° 0 mm 3 mps 750 mmHg 61%
    21:00 +18°C° 0 mm 3 mps 750 mmHg 62%
    22:00 +18°C° 0 mm 2 mps 749 mmHg 62%
    23:00 +18°C° 0 mm 2 mps 749 mmHg 62%
    Show more